Location: Bailey Inglish Elementary School
(33.5826°N, 96.1780°W)
Time: 16:30:34
(UTC+00:00)

ISS - Pass Details

Date: 29 June 2024
Orbit: 410 x 424 km, 51.6° (Epoch: 16 July)

Event Time Altitude Azimuth Distance (km) Brightness Sun altitude
Exits shadow 07:59:04 15° 7° (N) 1,203 -0.7 -29.3°
Drops below altitude 10° 08:00:03 10° 20° (NNE) 1,499 0.0 -29.2°
Sets 08:02:24 0° 35° (NE) 2,352 1.2 -29.0°
